Time,TemperatureF,DewpointF,PressureIn,WindDirection,WindDirectionDegrees,WindSpeedMPH,WindSpeedGustMPH,Humidity,HourlyPrecipIn,Conditions,Clouds,dailyrainin,SoftwareType,DateUTC
2013-04-05 01:02:00,50.0,47.0,-100.00,ESE,112,2.0,6.0,89,-99.99,,,-99.99,,2013-04-05 08:02:00,
2013-04-05 01:12:00,50.0,47.0,-100.00,ESE,112,2.0,6.0,89,-99.99,,,-99.99,,2013-04-05 08:12:00,
2013-04-05 03:02:00,49.0,47.0,-100.00,WNW,287,3.0,12.0,92,-99.99,,,-99.99,,2013-04-05 10:02:00,
2013-04-05 03:12:00,49.0,47.0,-100.00,WNW,287,3.0,12.0,92,-99.99,,,-99.99,,2013-04-05 10:12:00,
2013-04-05 05:02:00,47.0,44.0,-100.00,West,271,3.0,10.0,89,-99.99,,,-99.99,,2013-04-05 12:02:00,
2013-04-05 05:12:00,47.0,44.0,-100.00,West,271,3.0,10.0,89,-99.99,,,-99.99,,2013-04-05 12:12:00,
2013-04-05 06:20:00,48.0,46.0,-100.00,SSW,196,2.0,6.0,92,-99.99,,,-99.99,,2013-04-05 13:20:00,
2013-04-05 07:02:00,48.0,46.0,-100.00,SSW,196,2.0,6.0,92,-99.99,,,-99.99,,2013-04-05 14:02:00,
2013-04-05 07:12:00,48.0,46.0,-100.00,SSW,196,2.0,6.0,92,-99.99,,,-99.99,,2013-04-05 14:12:00,
2013-04-05 09:02:00,49.0,47.0,-100.00,SSE,164,2.0,5.0,92,-99.99,,,-99.99,,2013-04-05 16:02:00,
2013-04-05 09:13:00,49.0,47.0,-100.00,SSE,164,2.0,5.0,92,-99.99,,,-99.99,,2013-04-05 16:13:00,
2013-04-05 10:20:00,51.0,49.0,-100.00,SE,126,3.0,10.0,92,-99.99,,,-99.99,,2013-04-05 17:20:00,
2013-04-05 11:00:00,51.0,48.0,-100.00,NNE,16,3.0,10.0,89,-99.99,,,-99.99,,2013-04-05 18:00:00,
2013-04-05 11:02:00,51.0,49.0,-100.00,SE,126,3.0,10.0,92,-99.99,,,-99.99,,2013-04-05 18:02:00,
2013-04-05 11:12:00,51.0,49.0,-100.00,SE,126,3.0,10.0,92,-99.99,,,-99.99,,2013-04-05 18:12:00,
2013-04-05 13:00:00,53.0,48.0,-100.00,North,353,3.0,13.0,83,-99.99,,,-99.99,,2013-04-05 20:00:00,
2013-04-05 15:00:00,53.0,46.0,-100.00,East,88,5.0,14.0,77,-99.99,,,-99.99,,2013-04-05 22:00:00,
2013-04-05 15:03:00,53.0,47.0,-100.00,ESE,106,3.0,10.0,79,-99.99,,,-99.99,,2013-04-05 22:03:00,
2013-04-05 15:13:00,53.0,47.0,-100.00,ESE,106,3.0,10.0,79,-99.99,,,-99.99,,2013-04-05 22:13:00,
2013-04-05 16:20:00,52.0,47.0,-100.00,South,188,3.0,10.0,82,-99.99,,,-99.99,,2013-04-05 23:20:00,
2013-04-05 17:00:00,51.0,47.0,-100.00,South,182,3.0,8.0,86,-99.99,,,-99.99,,2013-04-06 00:00:00,
2013-04-05 17:02:00,52.0,47.0,-100.00,South,188,3.0,10.0,82,-99.99,,,-99.99,,2013-04-06 00:02:00,
2013-04-05 17:12:00,52.0,47.0,-100.00,South,188,3.0,10.0,82,-99.99,,,-99.99,,2013-04-06 00:12:00,
2013-04-05 18:20:00,48.0,45.0,-100.00,South,181,2.0,10.0,89,-99.99,,,-99.99,,2013-04-06 01:20:00,
2013-04-05 19:02:00,48.0,45.0,-100.00,South,181,2.0,10.0,89,-99.99,,,-99.99,,2013-04-06 02:02:00,
2013-04-05 19:12:00,48.0,45.0,-100.00,South,181,2.0,10.0,89,-99.99,,,-99.99,,2013-04-06 02:12:00,
2013-04-05 20:20:00,46.0,45.0,-100.00,NW,322,1.0,2.0,96,-99.99,,,-99.99,,2013-04-06 03:20:00,
2013-04-05 21:03:00,46.0,45.0,-100.00,NW,322,1.0,2.0,96,-99.99,,,-99.99,,2013-04-06 04:03:00,
2013-04-05 21:13:00,46.0,45.0,-100.00,NW,322,1.0,2.0,96,-99.99,,,-99.99,,2013-04-06 04:13:00,
2013-04-05 23:02:00,45.0,44.0,-100.00,SSW,198,1.0,2.0,96,-99.99,,,-99.99,,2013-04-06 06:02:00,
2013-04-05 23:12:00,45.0,44.0,-100.00,SSW,198,1.0,2.0,96,-99.99,,,-99.99,,2013-04-06 06:12:00,